Adelanto, California, United States (92301)
Lat: 34.58N, Lon: 117.41W
Wx Zone: CAZ060
Local Info
Past Weather Observations for Friday, October 17, 2014

NOTE: This archive is for the closest National Weather Service station to Adelanto. Information may differ from the station used for current weather conditions.

Click here for Long-term Archive

Time Weather Temperature Dewpoint Humidity Pressure Winds Precip Visibility
23:55
Clear
55°F / 13°C 48°F / 9°C 77% 29.98 in
(1015 mb)
SSW 4.6 mph
(SSW 7 kph)
- 10SM
23:35
Clear
57°F / 14°C 48°F / 9°C 72% 29.98 in
(1015 mb)
SSW 3.5 mph
(SSW 6 kph)
- 10SM
23:15
Clear
57°F / 14°C 48°F / 9°C 72% 29.98 in
(1015 mb)
SW 3.5 mph
(SW 6 kph)
- 10SM
22:55
Clear
57°F / 14°C 48°F / 9°C 72% 29.98 in
(1015 mb)
SW 3.5 mph
(SW 6 kph)
- 10SM
22:35
Clear
57°F / 14°C 48°F / 9°C 72% 29.98 in
(1015 mb)
Calm - 10SM
22:15
Clear
57°F / 14°C 48°F / 9°C 72% 30.01 in
(1016 mb)
SW 3.5 mph
(SW 6 kph)
- 10SM
21:55
Clear
59°F / 15°C 48°F / 9°C 68% 29.98 in
(1015 mb)
Calm - 10SM
21:35
Clear
61°F / 16°C 48°F / 9°C 63% 29.98 in
(1015 mb)
Calm - 10SM
21:15
Clear
61°F / 16°C 48°F / 9°C 63% 30.01 in
(1016 mb)
Calm - 10SM
20:55
Clear
61°F / 16°C 48°F / 9°C 63% 30.01 in
(1016 mb)
Calm - 10SM
20:35
Clear
61°F / 16°C 48°F / 9°C 63% 29.98 in
(1015 mb)
Calm - 10SM
20:15
Clear
63°F / 17°C 48°F / 9°C 59% 29.98 in
(1015 mb)
SSW 3.5 mph
(SSW 6 kph)
- 10SM
19:55
Clear
63°F / 17°C 48°F / 9°C 59% 29.98 in
(1015 mb)
SSW 9.2 mph
(SSW 15 kph)
- 10SM
19:35
Clear
63°F / 17°C 48°F / 9°C 59% 29.98 in
(1015 mb)
SSW 9.2 mph
(SSW 15 kph)
- 10SM
19:15
Clear
64°F / 18°C 48°F / 9°C 56% 29.98 in
(1015 mb)
SSW 10.4 mph
(SSW 17 kph)
- 10SM
18:55
Clear
64°F / 18°C 48°F / 9°C 56% 29.98 in
(1015 mb)
SSW 8.1 mph
(SSW 13 kph)
- 10SM
18:35
Clear
66°F / 19°C 46°F / 8°C 49% 29.98 in
(1015 mb)
SSW 8.1 mph
(SSW 13 kph)
- 10SM
18:15
Clear
66°F / 19°C 46°F / 8°C 49% 29.98 in
(1015 mb)
SSW 8.1 mph
(SSW 13 kph)
- 10SM
17:55
Clear
68°F / 20°C 46°F / 8°C 46% 29.95 in
(1014 mb)
SW 4.6 mph
(SW 7 kph)
- 10SM
17:35
Clear
68°F / 20°C 45°F / 7°C 43% 29.95 in
(1014 mb)
SSE 6.9 mph
(SSE 11 kph)
- 10SM
17:15
Clear
68°F / 20°C 45°F / 7°C 43% 29.95 in
(1014 mb)
SSE 9.2 mph
(SSE 15 kph)
- 10SM
16:55
Partly Cloudy
70°F / 21°C 45°F / 7°C 40% 29.95 in
(1014 mb)
S 11.5 mph
(S 19 kph)
- 10SM
16:35
Partly Cloudy
70°F / 21°C 45°F / 7°C 40% 29.95 in
(1014 mb)
S 13.8 mph
(S 22 kph)
- 10SM
16:15
Clear
72°F / 22°C 39°F / 4°C 31% 29.92 in
(1013 mb)
S 17.3 mph
(S 28 kph)
- 10SM
15:55
Partly Cloudy
73°F / 23°C 37°F / 3°C 27% 29.92 in
(1013 mb)
S 15 mph
(S 24 kph)
- 10SM
15:35
Partly Cloudy
75°F / 24°C 36°F / 2°C 24% 29.92 in
(1013 mb)
S 13.8 mph
(S 22 kph)
- 10SM
15:15
Partly Cloudy
77°F / 25°C 36°F / 2°C 22% 29.92 in
(1013 mb)
S 8.1 mph
(S 13 kph)
- 10SM
14:55
Partly Cloudy
79°F / 26°C 36°F / 2°C 21% 29.92 in
(1013 mb)
S 5.8 mph
(S 9 kph)
- 10SM
14:35
Partly Cloudy
79°F / 26°C 27°F / -3°C 15% 29.92 in
(1013 mb)
Calm - 10SM
14:15
Partly Cloudy
79°F / 26°C 28°F / -2°C 16% 29.92 in
(1013 mb)
E 5.8 mph
(E 9 kph)
- 10SM
13:55
Partly Cloudy
79°F / 26°C 28°F / -2°C 16% 29.92 in
(1013 mb)
S 5.8 mph
(S 9 kph)
- 10SM
13:35
Partly Cloudy
79°F / 26°C 30°F / -1°C 17% 29.95 in
(1014 mb)
Calm - 10SM
13:15
Partly Cloudy
75°F / 24°C 30°F / -1°C 19% 29.95 in
(1014 mb)
Calm - 10SM
12:55
Partly Cloudy
75°F / 24°C 28°F / -2°C 18% 29.95 in
(1014 mb)
Calm - 10SM
12:35
Partly Cloudy
75°F / 24°C 27°F / -3°C 16% 29.98 in
(1015 mb)
Calm - 10SM
12:15
Partly Cloudy
75°F / 24°C 34°F / 1°C 22% 29.98 in
(1015 mb)
N 3.5 mph
(N 6 kph)
- 10SM
11:55
Partly Cloudy
73°F / 23°C 37°F / 3°C 27% 29.98 in
(1015 mb)
NNW 3.5 mph
(NNW 6 kph)
- 10SM
11:35
Partly Cloudy
73°F / 23°C 41°F / 5°C 31% 29.98 in
(1015 mb)
Calm - 10SM
11:15
Partly Cloudy
72°F / 22°C 43°F / 6°C 36% 29.98 in
(1015 mb)
ENE 3.5 mph
(ENE 6 kph)
- 10SM
10:55
Clear
72°F / 22°C 43°F / 6°C 36% 30.01 in
(1016 mb)
Calm - 10SM
10:35
Clear
70°F / 21°C 45°F / 7°C 40% 30.01 in
(1016 mb)
Calm - 10SM
10:15
Clear
70°F / 21°C 45°F / 7°C 40% 30.01 in
(1016 mb)
Calm - 10SM
09:55
Clear
68°F / 20°C 45°F / 7°C 43% 30.01 in
(1016 mb)
Calm - 10SM
09:35
Clear
66°F / 19°C 46°F / 8°C 49% 30.01 in
(1016 mb)
Calm - 10SM
09:15
Clear
64°F / 18°C 48°F / 9°C 56% 30.01 in
(1016 mb)
Calm - 10SM
08:55
Clear
63°F / 17°C 48°F / 9°C 59% 30.01 in
(1016 mb)
Calm - 10SM
08:35
Clear
61°F / 16°C 48°F / 9°C 63% 30.01 in
(1016 mb)
Calm - 10SM
08:15
Clear
59°F / 15°C 48°F / 9°C 68% 30.01 in
(1016 mb)
Calm - 10SM
07:55
Clear
57°F / 14°C 46°F / 8°C 67% 30.01 in
(1016 mb)
Calm - 10SM
07:35
Clear
55°F / 13°C 46°F / 8°C 72% 30.01 in
(1016 mb)
Calm - 7SM
07:15
Clear
54°F / 12°C 45°F / 7°C 72% 30.01 in
(1016 mb)
SSE 3.5 mph
(SSE 6 kph)
- 7SM
06:55
Clear
52°F / 11°C 45°F / 7°C 77% 30.01 in
(1016 mb)
S 3.5 mph
(S 6 kph)
- 7SM
06:35
Clear
48°F / 9°C 43°F / 6°C 82% 29.98 in
(1015 mb)
S 5.8 mph
(S 9 kph)
- 10SM
06:15
Clear
46°F / 8°C 41°F / 5°C 82% 29.98 in
(1015 mb)
S 3.5 mph
(S 6 kph)
- 10SM
05:55
Clear
45°F / 7°C 41°F / 5°C 87% 29.98 in
(1015 mb)
S 4.6 mph
(S 7 kph)
- 10SM
05:35
Clear
45°F / 7°C 41°F / 5°C 87% 29.98 in
(1015 mb)
SW 3.5 mph
(SW 6 kph)
- 7SM
05:15
Clear
46°F / 8°C 39°F / 4°C 76% 29.98 in
(1015 mb)
SSW 4.6 mph
(SSW 7 kph)
- 7SM
04:55
Clear
48°F / 9°C 43°F / 6°C 82% 29.98 in
(1015 mb)
Calm - 10SM
04:35
Clear
52°F / 11°C 43°F / 6°C 72% 29.98 in
(1015 mb)
S 3.5 mph
(S 6 kph)
- 10SM
04:15
Clear
52°F / 11°C 43°F / 6°C 72% 29.98 in
(1015 mb)
SSE 5.8 mph
(SSE 9 kph)
- 10SM
03:55
Clear
52°F / 11°C 43°F / 6°C 72% 29.98 in
(1015 mb)
SSE 4.6 mph
(SSE 7 kph)
- 10SM
03:35
Clear
50°F / 10°C 43°F / 6°C 76% 29.98 in
(1015 mb)
S 4.6 mph
(S 7 kph)
- 10SM
03:15
Clear
48°F / 9°C 43°F / 6°C 82% 29.98 in
(1015 mb)
S 5.8 mph
(S 9 kph)
- 10SM
02:55
Clear
48°F / 9°C 45°F / 7°C 87% 29.98 in
(1015 mb)
S 4.6 mph
(S 7 kph)
- 10SM
02:35
Clear
50°F / 10°C 43°F / 6°C 76% 29.98 in
(1015 mb)
S 4.6 mph
(S 7 kph)
- 10SM
02:15
Clear
52°F / 11°C 45°F / 7°C 77% 29.98 in
(1015 mb)
S 3.5 mph
(S 6 kph)
- 10SM
01:55
Clear
52°F / 11°C 45°F / 7°C 77% 29.98 in
(1015 mb)
S 3.5 mph
(S 6 kph)
- 10SM
01:35
Clear
52°F / 11°C 45°F / 7°C 77% 29.98 in
(1015 mb)
S 3.5 mph
(S 6 kph)
- 10SM
01:15
Clear
54°F / 12°C 45°F / 7°C 72% 29.98 in
(1015 mb)
SSE 4.6 mph
(SSE 7 kph)
- 10SM
00:55
Clear
52°F / 11°C 45°F / 7°C 77% 29.98 in
(1015 mb)
S 3.5 mph
(S 6 kph)
- 10SM
00:35
Clear
54°F / 12°C 45°F / 7°C 72% 29.98 in
(1015 mb)
S 4.6 mph
(S 7 kph)
- 10SM
00:15
Clear
52°F / 11°C 41°F / 5°C 67% 29.98 in
(1015 mb)
SW 3.5 mph
(SW 6 kph)
- 10SM
Time Weather Temperature Dewpoint Humidity Pressure Winds Precip Visibility


Weather for websites

WeatherForYou.com, LLC is not responsible for any damages or problems caused by this service. Current weather conditions are obtained from the closest station including government and personal stations which may have varying degrees of accuracy. Weather forecasts are derived from the NOAA NDFD. Like all things, this site belongs to Jesus Christ... He just trusts me to maintain it. If you have any questions or comments email webmaster@weatherforyou.com

Copyright © 2014, WeatherForYou.com LLC. All rights reserved.